Weather Roundup
Issued by NWS Springfield, MO

Home | Current Version | Previous Version | Text Only | Print | Product List | Glossary On
Versions: 1 2 3 4 5 6 7 8 9 10 11 12 13 14 15 16 17 18 19 20 21 22 23 24 25 26 27 28 29 30 31 32 33 34 35 36 37 38 39 40 41 42 43 44 45 46 47 48 49 50
000
NZUS99 KSGF 161157
HRRSGF

HOURLY WEATHER
NATIONAL WEATHER SERVICE SPRINGFIELD MO
600 AM CST MON JAN 16 2017

......SGF CWA......

CITY           SKY/WX    TMP DP  RH WIND       PRES   REMARKS
SPRINGFIELD    LGT RAIN  48  46  93 SE23      29.94F
6HR MIN TEMP:  44; 6HR MAX TEMP:  48; 6HR PCP:  0.09;

JOPLIN         CLOUDY    52  51  97 E17       29.85F
6HR MIN TEMP:  47; 6HR MAX TEMP:  53; 6HR PCP:  0.27;

WEST PLAINS    FOG       44  43  96 SE8       30.08F VSB 1/4
6HR MIN TEMP:  40; 6HR MAX TEMP:  44; 6HR PCP:  0.01;

ROLLA          LGT RAIN  39  39 100 E14       30.04F VSB 1   WCI  31
6HR MIN TEMP:  33; 6HR MAX TEMP:  39; 6HR PCP:  0.02;


......SURROUNDING SGF CWA......

CITY           SKY/WX    TMP DP  RH WIND       PRES   REMARKS
CHANUTE        CLOUDY    50  49  96 SE9       29.82F
PARSONS        CLOUDY    54  52  93 SE7       29.82F
EMPORIA        LGT RAIN  38  38 100 E13       29.81F FOG     WCI  30
HARRISON AR    LGT RAIN  43  43 100 SE12      29.99F VSB 1/4

......KANSAS AND MISSOURI......

CITY           SKY/WX    TMP DP  RH WIND       PRES   REMARKS
KANSAS CTY INT LGT RAIN  35  32  88 E10       29.94F FOG     WCI  27
SEDALIA        LGT RAIN  40  39  97 E10       29.99F FOG     WCI  33
ST JOSEPH      LGT RAIN  33  33 100 E10       29.97F WCI  25
ST LOUIS       FOG       40  38  93 SE9       30.14S VSB 1/2 WCI  34
WICHITA        LGT RAIN  43  43 100 S3        29.78S FOG
TOPEKA         RAIN      35  32  88 NE10      29.89F FOG     WCI  27
OLATHE         LGT RAIN  36  36 100 E10       29.90F WCI  28

......TENNESSEE......

CITY           SKY/WX    TMP DP  RH WIND       PRES   REMARKS
MEMPHIS        NOT AVBL
NASHVILLE      FOG       49  47  93 CALM      30.22S VSB 1/4

......ARKANSAS.......

CITY           SKY/WX    TMP DP  RH WIND       PRES   REMARKS
FAYETTEVILLE   MOCLDY    58  55  90 S16G30    29.91F
FT SMITH       CLOUDY    49  47  93 E10       29.94S
LITTLE ROCK    FOG       46  46 100 E5        30.07S VSB 1/2

......OKLAHOMA.......

CITY           SKY/WX    TMP DP  RH WIND       PRES   REMARKS
TULSA          CLOUDY    56  54  93 S17G28    29.84R
PONCA CITY     PTCLDY    40  37  89 S5        29.81F
MCALESTER      PTCLDY    59  55  87 S8        29.89R
OKLAHOMA CITY  CLOUDY    40  39  97 SW9       29.85R WCI  34

......IOWA............

CITY           SKY/WX    TMP DP  RH WIND       PRES   REMARKS
DES MOINES     NOT AVBL
QUAD CITIES    LGT RAIN  32  30  92 E10       30.20F FOG     WCI  24

......ILLINOIS........

CITY           SKY/WX    TMP DP  RH WIND       PRES   REMARKS
QUINCY         NOT AVBL
CHICAGO        CLOUDY    33  29  85 NE5       30.25F WCI  29



USA.gov is the U.S. government's official web portal to all federal, state and local government web resources and services.